DW8425 Weather Reports


Display with metric or nautical units.
time (UTC)temp
F
wind
direction
speed
MPH
gust
MPH
rain 1hr
in
rain 24hr
in
rain mn
in
humidity
%
barometer
mb
20260505071559 43 345 0.0 2.0 0.00 0.00 0.00 59 1004.9
20260505070058 44 317 0.0 1.0 0.00 0.00 0.00 59 1004.8
20260505064553 44 317 0.0 1.0 0.00 0.00 0.00 58 1004.7
20260505063053 45 317 0.0 2.0 0.00 0.00 0.00 57 1004.6
20260505061548 46 317 0.0 2.0 0.00 0.00 0.00 54 1004.5
20260505060044 47 318 1.0 3.0 0.00 0.00 0.00 52 1004.4
20260505054544 47 360 0.0 1.0 0.00 0.00 0.00 51 1004.1
20260505053044 48 43 0.0 1.0 0.00 0.00 0.00 50 1003.9
20260505051542 48 47 0.0 1.0 0.00 0.00 0.00 50 1004.0
20260505050118 48 47 0.0 1.0 0.00 0.00 0.00 49 1004.1
20260505041552 50 65 0.0 1.0 0.00 0.00 0.00 45 1003.7
20260505040052 51 360 0.0 1.0 0.00 0.00 0.00 42 1003.6
20260505034540 52 360 0.0 1.0 0.00 0.00 0.00 40 1003.3
20260505033045 54 338 0.0 2.0 0.00 0.00 0.00 38 1003.0
20260505031545 55 360 0.0 4.0 0.00 0.00 0.00 36 1002.8
20260505030042 56 333 2.0 4.0 0.00 0.00 0.00 32 1002.5
20260505024538 58 333 0.0 4.0 0.00 0.00 0.00 31 1002.5
20260505023044 59 319 0.0 5.0 0.00 0.00 0.00 28 1002.3
20260505021541 61 331 1.0 4.0 0.00 0.00 0.00 27 1002.2
20260505020038 62 351 1.0 7.0 0.00 0.00 0.00 26 1002.1
20260505014556 63 341 1.0 5.0 0.00 0.00 0.00 26 1002.3
20260505013039 63 309 2.0 10.0 0.00 0.00 0.00 25 1002.4
20260505011534 63 323 3.0 7.0 0.00 0.00 0.00 25 1002.5
20260505010034 63 343 2.0 7.0 0.00 0.00 0.00 24 1002.5
20260505004538 64 315 2.0 8.0 0.00 0.00 0.00 21 1002.6
20260505003032 65 319 1.0 9.0 0.00 0.00 0.00 22 1002.6
20260505001531 66 313 3.0 6.0 0.00 0.00 0.00 21 1002.7
20260505000034 65 290 2.0 12.0 0.00 0.00 0.00 22 1002.8
20260504234529 65 304 1.0 6.0 0.00 0.00 0.00 22 1002.8
20260504233032 65 311 3.0 6.0 0.00 0.00 0.00 24 1002.9
20260504231527 66 326 1.0 7.0 0.00 0.00 0.00 23 1003.0
20260504230026 66 360 2.0 6.0 0.00 0.00 0.00 21 1003.1
20260504224528 66 315 1.0 6.0 0.00 0.00 0.00 22 1003.1
20260504223024 66 355 3.0 9.0 0.00 0.00 0.00 21 1003.3
20260504221523 66 338 3.0 8.0 0.00 0.00 0.00 20 1003.4
20260504220022 67 313 4.0 12.0 0.00 0.00 0.00 18 1003.4
20260504214523 67 313 3.0 9.0 0.00 0.00 0.00 21 1003.5
20260504213042 67 237 1.0 9.0 0.00 0.00 0.00 25 1003.6
20260504211518 68 230 1.0 8.0 0.00 0.00 0.00 20 1003.9
20260504210018 67 319 1.0 8.0 0.00 0.00 0.00 22 1004.0
20260504204513 67 321 2.0 10.0 0.00 0.00 0.00 21 1004.1
20260504203012 66 284 0.0 8.0 0.00 0.00 0.00 26 1004.2
20260504201517 66 26 0.0 6.0 0.00 0.00 0.00 24 1004.3
20260504200010 65 178 2.0 6.0 0.00 0.00 0.00 22 1004.4
20260504194507 66 152 2.0 7.0 0.00 0.00 0.00 23 1004.5
20260504193004 65 9 2.0 6.0 0.00 0.00 0.00 26 1004.7
20260504191501 64 304 1.0 4.0 0.00 0.00 0.00 23 1005.0
20260504190119 64 292 1.0 5.0 0.00 0.00 0.00 28 1005.0
20260504184606 64 5 4.0 7.0 0.00 0.00 0.00 28 1005.1
20260504183054 62 341 3.0 6.0 0.00 0.00 0.00 28 1005.2
20260504181550 61 159 0.0 4.0 0.00 0.00 0.00 35 1005.4
20260504180048 60 159 0.0 3.0 0.00 0.00 0.00 36 1005.6
20260504174543 59 327 1.0 4.0 0.00 0.00 0.00 38 1005.8
20260504173047 57 211 0.0 3.0 0.00 0.00 0.00 40 1006.0
20260504171535 55 142 2.0 4.0 0.00 0.00 0.00 42 1006.3
20260504110107 27 133 0.0 0.0 0.00 0.00 0.00 85 1008.2
20260504081528 32 167 0.0 0.0 0.00 0.00 0.00 75 1008.6